Lid_Strength_Index
0 -0 -0 -0 -0 -1 -1 -1 0 1 1 1 1 1 0 -0 -1 2 6 4 2 -1 1 7 7 8 8 8 9 10 13 14 14 13 13 12 11 11 10 10 9 8 7 5 3
0 -0 -0 -0 -0 -1 -1 -1 -0 1 1 0 0 1 0 0 4 5 1 -1 -1 -0 7 8 9 9 10 10 10 11 13 13 12 13 13 11 11 10 10 11 9 8 6 4 3
-0 -0 0 0 -0 -1 -1 -1 -1 0 1 1 0 -0 0 2 6 8 -1 -1 -1 1 6 7 8 8 10 11 11 12 12 12 12 11 11 10 12 11 11 12 10 9 7 5 6
0 0 1 1 0 -1 -1 -1 -0 -0 0 0 -0 -1 -0 3 14 6 0 0 0 5 6 8 8 10 11 12 11 13 12 12 11 11 11 11 11 12 11 10 11 9 6 5 5
1 1 1 0 -0 -0 -1 -1 -0 -0 -0 0 -0 -1 4 9 8 4 0 2 6 6 7 8 9 10 12 12 11 13 13 12 11 12 12 11 12 12 12 10 10 10 5 5 4
1 1 1 0 0 -0 -1 -1 -1 -0 -0 -0 -1 -1 7 13 6 4 5 5 6 8 8 8 9 9 11 12 12 12 12 12 12 12 12 13 13 13 13 12 11 10 7 5 5
1 1 1 1 0 0 -0 -1 -1 -0 -0 -0 -1 2 7 10 5 6 5 6 6 7 9 7 9 10 10 11 10 12 13 13 13 12 12 12 13 12 13 12 12 11 11 6 6
1 1 1 1 1 0 0 -0 -1 -0 -0 -0 -1 5 11 5 5 5 6 7 6 6 6 8 7 8 10 10 11 13 14 16 14 12 12 13 15 13 12 13 12 12 13 11 8
1 1 1 1 1 1 1 0 -0 -0 -0 -1 4 9 11 3 6 5 6 8 8 7 6 6 7 10 11 13 15 15 18 17 14 12 13 13 15 13 12 12 12 13 12 12 12
1 1 1 1 1 1 1 1 0 0 0 1 3 9 9 8 5 5 6 6 7 8 9 10 11 13 14 15 18 17 17 16 16 14 14 14 13 12 12 13 12 12 12 12 11
1 1 1 1 1 1 2 5 9 10 7 9 9 10 9 5 5 6 6 7 8 10 12 12 14 15 14 13 14 15 16 17 15 13 14 14 14 13 12 12 12 12 12 11 11
1 1 1 1 1 1 4 10 10 9 11 6 6 7 6 5 8 7 6 9 10 13 12 13 15 12 12 13 14 15 16 17 15 13 14 15 14 13 13 12 11 11 11 11 12
0 1 1 1 1 3 5 6 4 6 12 10 7 7 7 6 9 8 7 9 12 13 13 14 13 12 12 14 14 16 16 16 16 15 15 16 17 16 15 14 13 12 12 12 11
1 1 1 1 3 4 6 3 2 4 14 14 11 9 6 7 10 7 7 9 12 13 13 14 12 13 13 14 14 17 13 14 14 16 18 16 21 17 15 14 13 12 13 13 13
1 1 1 1 5 5 5 3 3 8 21 12 11 8 8 10 9 9 7 9 12 12 12 14 13 13 14 13 12 14 13 14 15 17 18 18 19 18 16 14 13 13 13 12 11
1 1 1 2 4 4 3 2 5 14 22 13 11 12 12 12 10 8 8 8 9 12 13 14 12 12 12 13 12 12 13 14 16 17 20 18 18 19 17 15 15 14 13 12 12
1 1 2 2 4 1 2 6 14 19 13 14 14 12 13 13 12 11 11 11 13 16 15 14 13 12 11 13 12 14 15 19 20 20 20 18 19 17 14 14 15 13 12 11 12
3 1 2 2 1 1 5 11 17 15 14 11 12 12 14 13 13 12 12 12 11 15 15 16 17 13 12 13 14 15 15 18 22 22 20 17 19 16 14 13 12 11 12 12 12
4 4 4 3 1 2 8 15 16 14 12 12 12 14 14 13 13 13 14 13 12 13 15 16 16 13 12 11 11 14 16 14 18 25 21 19 17 14 13 12 12 12 12 12 11
6 6 6 3 2 4 11 14 13 10 10 11 14 13 15 14 14 14 14 13 13 12 13 13 16 13 12 11 12 13 12 16 17 23 24 20 19 18 14 13 13 12 12 12 11
6 9 6 3 3 7 14 13 12 9 8 11 12 13 14 14 14 14 14 13 11 12 11 13 15 15 13 14 14 14 15 15 15 17 21 23 19 16 13 12 12 12 12 11 11
8 12 5 3 12 13 14 11 9 10 8 10 10 11 13 13 14 14 14 14 11 11 12 12 14 17 16 14 12 14 14 14 16 19 18 18 19 13 12 13 11 11 11 11 12
10 11 5 7 14 14 11 10 9 10 10 10 11 10 10 12 14 13 13 10 10 11 12 12 15 20 18 15 15 16 15 15 15 16 19 20 19 14 14 13 12 11 12 12 12
11 13 10 8 10 13 13 11 11 8 9 9 10 9 11 12 11 13 12 10 10 10 9 10 15 15 17 17 14 15 15 14 13 17 18 17 17 15 14 13 13 13 12 13 13
12 14 12 14 13 12 12 12 12 12 9 9 11 11 12 14 13 13 11 11 10 9 10 11 15 15 15 14 14 15 15 14 14 14 16 15 16 14 12 12 12 13 13 14 14
13 14 13 14 12 12 12 13 12 11 11 11 12 10 11 13 12 14 12 12 12 10 11 11 16 15 15 14 14 16 14 14 13 15 16 16 15 12 12 13 15 14 14 14 13
9 9 12 14 14 12 13 13 12 10 10 9 10 11 11 10 9 10 9 10 10 11 12 13 14 16 17 15 15 17 15 15 15 15 14 15 13 13 14 14 14 14 14 13 13